Wind_Speed
17 15 16 16 15 13 6 4 1 3 12 2 0 2 2 4 2 4 4 9 12 5 10 8 5 6 2 4 9 6 2 5 4 3 1 3 3 6 6 4 4 2 3 5
15 14 13 13 14 12 12 4 2 8 11 2 2 2 3 2 2 4 3 7 4 10 11 6 2 4 2 6 4 6 5 1 4 2 4 3 3 4 4 4 3 5 5 5
13 12 10 10 11 11 10 3 1 4 10 4 4 5 1 1 4 3 3 5 6 5 4 4 4 3 3 5 4 7 6 3 6 8 5 6 5 5 5 5 4 4 6 4
13 10 9 9 9 9 7 2 3 1 2 2 2 3 3 2 3 3 10 4 3 4 4 3 5 3 4 4 5 2 4 4 3 4 4 4 5 7 10 7 5 7 3 7
12 10 9 8 8 8 5 2 2 1 2 2 4 2 1 3 1 2 4 4 5 5 3 3 6 7 3 4 2 2 2 2 3 2 3 3 1 3 7 4 3 5 4 4
12 9 10 8 6 6 4 3 4 2 3 1 2 2 5 5 7 4 3 16 14 12 2 4 11 12 12 6 5 3 3 5 3 3 3 2 4 8 7 4 4 5 5 2
12 8 9 7 5 6 6 5 4 1 2 0 1 3 2 5 1 6 3 6 5 8 19 22 14 20 18 14 8 6 5 4 2 2 1 2 2 3 4 5 3 4 6 4
13 9 10 7 6 4 4 4 4 3 2 1 4 5 5 7 11 6 5 6 7 16 7 4 5 3 4 6 7 7 4 4 3 4 3 3 2 3 6 5 2 3 4 4
13 11 11 9 6 5 4 1 3 1 4 3 5 4 3 4 4 3 4 7 10 4 3 3 3 4 3 2 3 4 4 5 3 2 4 5 2 1 3 4 2 2 3 4
13 13 11 11 9 7 6 3 2 0 4 3 5 3 5 6 5 4 2 4 3 2 2 3 2 2 2 4 6 3 3 3 3 2 2 5 5 3 2 4 4 5 8 6
14 15 13 12 10 8 7 5 3 3 3 4 3 2 4 5 5 5 7 5 2 3 3 3 3 3 4 3 4 5 6 6 4 3 2 6 1 2 4 6 8 8 3 3
15 16 16 12 11 8 7 7 6 6 3 4 6 7 7 4 4 7 10 1 3 6 4 1 3 2 2 4 3 1 2 5 5 6 4 2 4 12 15 9 7 2 2 2
16 16 17 15 13 11 10 7 8 6 6 6 5 4 4 5 5 5 4 3 5 4 3 4 3 3 3 4 4 2 1 3 3 3 2 5 10 12 6 4 4 3 4 4
16 16 17 17 15 11 10 9 8 7 5 4 3 4 4 3 5 3 2 5 8 9 4 3 2 3 2 3 2 3 3 5 5 1 2 5 5 6 5 6 7 6 5 4
16 15 14 16 15 12 9 9 8 7 3 4 4 5 4 3 5 4 5 9 11 5 3 3 2 3 4 2 2 2 6 6 4 4 7 5 6 7 4 4 3 2 3 6
17 15 14 14 15 14 9 4 6 8 8 5 2 2 3 4 7 10 10 9 7 5 4 2 3 3 3 3 2 4 5 3 2 4 10 7 4 4 4 1 4 5 7 9
19 17 17 15 17 17 10 3 4 11 7 3 3 1 1 8 7 6 7 6 5 4 4 2 3 3 3 3 3 5 3 7 6 5 5 5 7 5 1 4 6 7 9 10
20 18 18 17 15 15 8 4 9 13 8 3 3 1 1 3 3 3 3 3 4 4 3 2 2 4 2 2 6 2 6 8 7 4 2 4 3 1 6 9 10 11 10 9
22 21 18 15 11 6 8 8 11 12 4 6 3 4 3 5 3 3 4 3 2 2 1 0 2 1 3 3 6 7 8 4 7 4 3 4 7 11 10 8 10 12 10 9
27 25 8 6 10 13 13 6 4 4 3 2 2 6 3 5 3 3 2 4 1 1 0 2 1 3 11 10 9 5 8 10 6 6 9 9 10 6 7 10 11 10 8 8
28 8 4 16 21 7 3 3 2 3 1 6 7 5 5 4 3 2 2 2 1 2 2 2 1 3 3 3 4 11 16 16 11 5 3 1 3 7 9 10 10 9 10 10
15 12 20 20 5 3 4 3 2 3 5 6 5 7 8 6 4 4 1 2 1 4 3 2 3 3 4 5 7 11 11 11 8 6 3 4 8 10 11 11 10 10 10 11
24 8 8 7 4 3 7 9 4 4 7 11 10 5 7 6 4 4 2 3 3 7 2 3 4 4 5 8 9 9 8 7 6 4 1 7 10 12 12 11 11 11 12 13
5 6 6 5 5 5 5 4 4 6 11 23 19 7 4 5 3 3 4 1 3 2 1 5 3 7 9 10 8 5 4 3 5 6 6 9 13 15 14 14 13 13 14 14
4 5 5 7 3 2 4 9 10 9 26 27 14 8 5 2 4 2 4 4 4 6 5 3 9 15 16 10 4 1 4 8 10 11 12 12 14 16 16 15 15 14 14 16
3 3 3 2 4 2 5 8 9 21 27 23 7 4 3 2 4 4 6 7 6 4 3 11 17 16 8 5 3 2 6 10 13 16 16 17 16 17 17 16 18 17 17 17
3 2 6 10 2 7 8 10 15 30 24 3 3 5 6 3 3 2 3 4 3 6 13 21 15 10 5 4 4 6 7 10 13 15 17 18 18 18 19 21 19 17 16 17
Wind_Direction
293 296 302 315 317 328 319 302 310 176 158 207 103 349 17 141 296 312 256 115 129 132 117 159 202 148 123 181 142 155 177 117 129 192 218 152 139 165 155 141 218 206 162 278
287 288 293 314 317 328 338 308 250 167 194 227 101 32 80 243 250 219 155 133 158 133 139 148 92 104 85 157 130 161 170 67 100 52 15 9 188 188 148 119 102 193 151 267
281 280 282 307 312 317 334 304 285 163 204 251 145 137 257 10 349 53 41 104 80 88 69 45 134 109 89 114 120 143 129 135 156 189 199 145 180 174 172 145 149 178 219 281
276 269 274 292 305 305 315 239 263 190 229 268 115 90 150 77 106 56 32 40 26 121 127 123 103 108 134 70 112 86 143 126 110 64 125 140 179 181 177 188 183 180 225 197
263 265 265 277 300 294 274 269 313 59 335 328 96 6 185 107 355 82 105 88 305 54 87 28 143 134 121 170 110 109 9 112 108 25 24 68 171 187 183 202 203 257 199 253
254 260 252 265 285 279 243 252 267 300 326 7 85 187 152 157 140 38 88 148 116 100 311 61 76 88 90 104 130 124 101 129 107 221 33 25 302 217 189 174 196 162 198 185
242 244 242 257 263 265 247 244 228 192 249 5 185 122 89 139 180 134 42 56 93 137 126 96 73 68 71 60 39 34 117 98 79 149 77 206 210 329 135 123 47 83 84 97
235 231 229 243 249 247 235 227 233 217 130 177 46 77 110 93 67 60 67 41 108 144 141 84 79 7 33 13 28 17 54 110 97 158 201 303 63 182 148 160 57 19 91 107
230 221 218 229 236 218 211 222 224 227 131 229 134 111 134 129 102 50 65 97 124 122 75 77 131 181 164 170 20 39 70 83 124 112 154 210 182 182 107 116 175 1 104 78
223 216 210 219 220 207 200 193 176 144 101 129 152 140 167 132 99 98 140 151 120 64 86 88 130 198 137 158 163 168 57 29 142 151 215 285 249 256 83 125 191 127 109 111
215 210 203 209 208 203 187 176 172 168 106 125 122 119 140 134 150 145 160 107 346 55 85 120 185 144 202 111 151 173 164 144 174 100 94 269 249 86 166 148 137 135 124 51
207 208 207 200 198 192 183 169 154 136 124 137 122 106 101 110 127 140 161 108 150 164 99 137 118 137 138 153 194 49 196 179 174 177 213 226 69 124 125 128 140 158 23 23
201 202 206 203 197 205 201 175 162 146 124 116 138 122 128 113 110 118 138 177 158 152 127 148 150 133 137 151 232 171 212 163 142 126 186 155 134 127 125 137 133 165 203 215
198 195 199 204 202 196 194 194 180 173 129 112 120 144 153 178 178 152 125 148 142 135 122 101 124 117 193 185 149 161 196 139 159 274 137 118 174 177 171 183 207 215 216 230
195 190 191 196 194 189 173 179 177 168 143 125 122 120 81 81 169 175 146 151 146 116 72 53 100 115 120 48 62 254 190 178 166 212 178 138 164 172 189 205 202 264 259 285
187 175 172 175 177 179 164 158 188 160 116 119 92 113 45 103 136 151 134 137 123 97 92 96 101 116 106 107 195 259 237 229 180 164 144 124 148 172 157 322 318 303 292 280
177 167 155 155 159 171 176 196 189 172 163 126 87 69 133 127 126 107 94 109 96 88 87 93 144 126 130 145 183 236 200 176 157 140 155 130 150 151 238 295 279 274 272 269
162 157 158 160 163 174 156 138 147 157 159 124 114 84 128 152 71 76 84 91 94 65 115 150 126 123 203 232 232 214 136 131 136 128 144 142 143 253 300 291 281 287 293 287
153 151 149 155 173 159 158 151 152 166 139 138 131 147 182 147 89 96 73 69 72 65 87 316 124 163 230 218 192 224 205 189 147 134 197 218 274 295 296 298 304 305 296 269
151 149 140 145 152 145 129 108 154 175 224 165 146 131 126 146 100 62 87 39 72 99 278 153 166 245 259 253 242 228 187 185 191 294 240 261 284 290 310 309 299 285 262 248
155 150 120 141 137 129 122 106 151 171 256 197 174 156 126 124 116 120 65 135 52 139 230 188 265 271 249 10 216 225 221 224 251 226 218 253 315 307 295 285 282 259 239 234
160 147 130 136 159 107 129 181 126 209 220 180 145 139 121 123 119 101 155 112 87 201 163 143 258 251 222 212 115 117 126 136 145 133 78 338 306 293 282 275 270 262 250 238
140 124 150 153 158 164 186 178 198 194 173 172 154 128 125 118 97 91 112 145 185 136 144 228 227 186 147 153 149 135 132 138 155 169 292 324 312 298 288 280 271 262 251 241
152 150 134 191 188 218 191 187 170 167 154 147 133 102 119 126 108 139 138 127 135 143 212 234 241 191 159 156 137 134 155 207 235 240 265 303 310 302 287 276 263 257 251 242
169 144 195 204 194 86 150 135 132 133 149 141 114 77 93 93 112 111 110 153 203 200 225 226 172 140 123 107 103 188 256 275 282 276 275 278 298 297 289 278 267 260 251 244
201 216 105 130 110 150 168 163 145 146 147 139 93 109 104 144 144 157 192 165 211 233 207 169 151 147 129 49 20 288 284 285 281 278 278 273 285 293 290 275 265 261 256 254
207 195 214 186 143 162 165 164 162 158 155 126 119 118 181 112 113 200 194 204 215 182 160 161 149 137 173 227 253 251 277 288 279 275 279 278 280 282 280 273 270 263 257 256
Height
1418 1415 1413 1410 1408 1406 1403 1401 1401 1399 1400 1402 1398 1397 1396 1398 1398 1398 1399 1400 1406 1406 1414 1426 1428 1428 1427 1428 1434 1441 1442 1457 1473 1468 1463 1464 1466 1472 1478 1492 1492 1501 1502 1484
1414 1411 1410 1408 1405 1404 1402 1401 1400 1401 1401 1398 1399 1401 1401 1401 1399 1397 1396 1398 1402 1406 1414 1427 1425 1426 1430 1429 1431 1435 1440 1458 1476 1470 1469 1466 1466 1468 1471 1478 1484 1493 1494 1480
1410 1408 1407 1406 1404 1402 1403 1401 1400 1400 1400 1395 1393 1399 1401 1399 1398 1398 1397 1400 1401 1408 1414 1416 1426 1427 1430 1431 1433 1437 1439 1452 1457 1463 1461 1462 1467 1465 1468 1470 1486 1484 1484 1469
1406 1405 1404 1404 1402 1401 1402 1400 1398 1396 1398 1393 1392 1393 1398 1399 1397 1400 1400 1405 1407 1408 1416 1419 1426 1427 1431 1431 1433 1438 1439 1448 1449 1453 1452 1453 1456 1459 1465 1468 1468 1473 1465 1471
1402 1401 1401 1401 1400 1399 1400 1398 1399 1396 1395 1393 1392 1394 1400 1401 1402 1404 1410 1412 1410 1407 1412 1417 1421 1423 1426 1429 1435 1437 1438 1451 1448 1457 1454 1452 1454 1455 1461 1462 1463 1466 1465 1467
1399 1398 1398 1398 1398 1398 1397 1396 1397 1397 1397 1396 1396 1396 1399 1401 1402 1406 1407 1413 1416 1421 1418 1418 1417 1418 1424 1427 1432 1438 1441 1448 1455 1458 1458 1456 1462 1456 1457 1458 1458 1458 1464 1459
1395 1395 1396 1396 1396 1396 1396 1395 1396 1396 1398 1398 1397 1396 1397 1400 1401 1402 1407 1406 1408 1422 1422 1422 1425 1425 1427 1431 1435 1435 1441 1448 1455 1462 1460 1471 1448 1446 1447 1453 1458 1457 1457 1458
1391 1392 1393 1394 1394 1394 1394 1394 1395 1395 1400 1399 1399 1399 1401 1403 1404 1407 1410 1412 1414 1419 1422 1427 1433 1440 1434 1439 1441 1440 1439 1447 1461 1462 1464 1455 1447 1446 1451 1450 1462 1459 1459 1461
1388 1389 1391 1391 1392 1392 1393 1392 1394 1394 1396 1398 1398 1401 1402 1405 1410 1414 1417 1417 1417 1420 1423 1428 1439 1444 1437 1445 1445 1445 1445 1447 1450 1471 1465 1460 1446 1443 1444 1445 1464 1459 1459 1461
1384 1385 1388 1389 1390 1391 1392 1392 1392 1393 1394 1398 1399 1400 1403 1403 1407 1414 1417 1417 1420 1420 1427 1439 1445 1439 1438 1444 1446 1449 1451 1454 1457 1461 1461 1455 1444 1443 1444 1456 1462 1458 1459 1460
1380 1382 1385 1387 1388 1390 1391 1392 1392 1394 1394 1398 1399 1400 1401 1403 1405 1410 1414 1418 1420 1424 1428 1435 1439 1440 1440 1441 1444 1447 1449 1461 1461 1466 1466 1458 1442 1444 1448 1453 1454 1456 1457 1458
1377 1379 1382 1384 1386 1388 1390 1392 1393 1393 1395 1398 1399 1401 1402 1403 1404 1405 1410 1412 1412 1415 1425 1431 1436 1439 1444 1442 1443 1442 1444 1441 1445 1449 1450 1443 1442 1443 1446 1449 1452 1453 1454 1455
1374 1376 1379 1382 1384 1386 1389 1390 1391 1394 1396 1401 1402 1402 1403 1404 1404 1406 1409 1412 1412 1413 1414 1419 1426 1429 1436 1441 1441 1437 1436 1437 1440 1442 1444 1443 1443 1445 1447 1449 1451 1453 1454 1455
1370 1373 1376 1379 1382 1385 1387 1389 1391 1393 1395 1398 1405 1404 1405 1405 1406 1407 1408 1408 1410 1413 1415 1417 1422 1425 1430 1436 1433 1436 1436 1436 1439 1441 1442 1444 1445 1446 1448 1449 1450 1451 1451 1452
1368 1371 1374 1376 1380 1383 1387 1389 1390 1392 1395 1399 1403 1404 1406 1405 1406 1408 1409 1410 1411 1413 1416 1418 1422 1424 1428 1434 1436 1437 1432 1433 1437 1438 1434 1437 1442 1444 1445 1447 1448 1448 1448 1449
1366 1369 1372 1375 1379 1383 1386 1390 1391 1391 1393 1397 1406 1407 1406 1406 1407 1408 1408 1410 1411 1413 1416 1421 1423 1424 1427 1436 1442 1428 1428 1429 1430 1431 1434 1437 1439 1442 1443 1444 1444 1444 1446 1447
1364 1368 1372 1376 1379 1383 1387 1388 1388 1390 1394 1396 1404 1405 1407 1406 1407 1408 1410 1411 1412 1415 1419 1421 1423 1424 1427 1431 1433 1423 1425 1427 1430 1432 1434 1436 1438 1439 1441 1442 1443 1444 1444 1444
1363 1368 1372 1377 1380 1384 1387 1387 1388 1391 1394 1397 1403 1406 1408 1408 1408 1410 1411 1413 1415 1418 1421 1422 1422 1424 1425 1429 1423 1423 1424 1425 1427 1429 1431 1433 1436 1438 1439 1439 1439 1439 1439 1438
1363 1369 1373 1378 1382 1384 1385 1388 1390 1392 1397 1396 1400 1403 1407 1409 1410 1411 1414 1415 1418 1421 1421 1422 1424 1425 1425 1419 1420 1421 1422 1424 1425 1428 1431 1432 1434 1435 1435 1435 1434 1433 1434 1436
1363 1370 1373 1378 1381 1385 1387 1392 1393 1394 1394 1395 1396 1398 1404 1408 1410 1415 1418 1418 1421 1423 1424 1423 1423 1420 1416 1418 1418 1419 1421 1423 1424 1427 1429 1431 1431 1431 1431 1432 1432 1432 1433 1434
1361 1366 1371 1377 1382 1386 1387 1390 1393 1394 1394 1392 1393 1395 1400 1407 1409 1414 1417 1421 1423 1425 1426 1425 1425 1424 1413 1412 1412 1414 1417 1420 1423 1425 1426 1428 1429 1430 1430 1430 1430 1430 1431 1431
1357 1361 1369 1378 1382 1384 1387 1389 1391 1391 1390 1387 1388 1393 1397 1404 1408 1413 1418 1420 1424 1424 1425 1426 1426 1415 1410 1411 1412 1412 1414 1418 1421 1423 1426 1427 1428 1428 1428 1428 1427 1427 1428 1429
1355 1361 1366 1371 1378 1381 1379 1380 1382 1382 1379 1380 1383 1390 1396 1403 1408 1413 1416 1419 1421 1423 1425 1422 1415 1408 1409 1410 1412 1413 1415 1418 1420 1423 1424 1425 1425 1425 1425 1425 1425 1425 1425 1426
1353 1356 1363 1364 1367 1364 1362 1364 1364 1365 1368 1374 1380 1387 1393 1400 1406 1411 1413 1422 1422 1427 1437 1422 1407 1404 1406 1409 1411 1413 1416 1418 1419 1420 1421 1422 1422 1422 1421 1421 1421 1421 1421 1422
1350 1351 1352 1355 1355 1357 1358 1359 1362 1364 1368 1372 1380 1388 1394 1399 1404 1408 1414 1418 1418 1415 1416 1406 1400 1403 1406 1409 1411 1413 1414 1416 1416 1417 1417 1418 1418 1418 1417 1417 1417 1417 1417 1417
1348 1349 1351 1352 1354 1358 1360 1359 1360 1363 1367 1373 1379 1390 1396 1399 1400 1402 1403 1409 1412 1402 1397 1394 1398 1401 1404 1406 1408 1410 1412 1413 1413 1413 1413 1413 1413 1413 1413 1413 1412 1413 1413 1414
1344 1346 1347 1347 1348 1351 1355 1357 1359 1364 1369 1373 1380 1389 1394 1396 1400 1403 1401 1400 1390 1384 1388 1393 1398 1401 1404 1407 1408 1410 1410 1410 1409 1409 1408 1408 1408 1408 1407 1407 1407 1408 1409 1409